Hourly Data Report for September 23, 2017

All times are specified in Local Standard Time (LST). Add 1 hour to adjust for Daylight Saving Time where and when it is observed.

HALL BEACH A
NUNAVUT

68°46'33.000" N
81°14'33.000" W
9.10 m
2402354
71293
YUX

Download Data

Hourly Data (September 2017)
Hourly Data Report for September 23, 2017
Temp Definition
°C
Dew Point Temp Definition
°C
Rel Hum Definition
%
Wind Dir Definition
10's deg

Wind Spd Definition
km/h
Visibility Definition
km
Stn Press Definition
kPa
Hmdx Definition


Wind Chill Definition


Weather Definition


TIME
00:00 Legend Double Dagger -0.2 -2.1 87 35 30 16.1 101.51   -7 LegendNANA
01:00 Legend Double Dagger -0.6 -3.3 82 36 35 16.1 101.54   -8 LegendNANA
02:00 Legend Double Dagger -0.8 -3.7 81 36 32 16.1 101.56   -8 LegendNANA
03:00 Legend Double Dagger -1.2 -3.9 82 35 30 16.1 101.58   -8 LegendNANA
04:00 Legend Double Dagger -1.4 -3.4 86 32 28 16.1 101.58   -8 LegendNANA
05:00 Legend Double Dagger -1.7 -3.7 86 34 32 16.1 101.62   -9 LegendNANA
06:00 Legend Double Dagger -1.7 -3.7 86 33 30 16.1 101.64   -9 LegendNANA
07:00 Legend Double Dagger -2.0 -4.2 85 33 34 16.1 101.66   -10 LegendNANA
08:00 Legend Double Dagger -2.2 -4.4 85 33 39 16.1 101.65   -10 LegendNANA
09:00 Legend Double Dagger -2.1 -4.6 83 34 35 16.1 101.68   -10 LegendNANA
10:00 Legend Double Dagger -2.3 -5.0 82 34 34 16.1 101.66   -10 LegendNANA
11:00 Legend Double Dagger -1.8 -5.0 79 32 28 16.1 101.64   -9 LegendNANA
12:00 Legend Double Dagger -2.0 -4.8 81 33 34 16.1 101.63   -10 LegendNANA
13:00 Legend Double Dagger -1.4 -4.6 79 33 34 16.1 101.59   -9 LegendNANA
14:00 Legend Double Dagger -1.3 -4.7 78 32 32 16.1 101.56   -8 LegendNANA
15:00 Legend Double Dagger -1.2 -5.1 75 31 34 16.1 101.55   -8 LegendNANA
16:00 Legend Double Dagger -0.9 -4.9 75 32 34 16.1 101.51   -8 LegendNANA
17:00 Legend Double Dagger -1.3 -4.5 79 32 37 16.1 101.46   -9 Snow
18:00 Legend Double Dagger -1.7 -3.6 87 31 35 12.9 101.42   -9 LegendNANA
19:00 Legend Double Dagger -1.9 -3.2 91 32 26 4.8 101.38   -8 Snow
20:00 Legend Double Dagger -1.4 -3.2 88 32 28 16.1 101.35   -8 LegendNANA
21:00 Legend Double Dagger -1.5 -3.1 89 31 28 16.1 101.32   -8 LegendNANA
22:00 Legend Double Dagger -1.3 -3.2 87 33 34 16.1 101.29   -9 LegendNANA
23:00 Legend Double Dagger -1.3 -3.3 86 33 35 16.1 101.28   -9 LegendNANA

Notes on Data Quality.

Legend

  • E = Estimated
  • M = Missing
  • NA = Not Available
  • ‡ = Partner data that is not subject to review by the National Climate Archives
Date modified: